Torna al catalogo

CZ-6A DEB

AttivoPO
NORAD 61396·DEBRIS·🇨🇳 China

Lanciato Aug 6, 2024 da Taiyuan Satellite Launch Center

Loading…

Prossimi Passaggi (prossime 24 ore)

TLE

AggiornatoSource: Space-Track

Epoca: Sep 13, 2026, 23:59 UTC

1 61396U 24140XM  26256.99958468  .00001906  00000-0  27360-3 0  9992
2 61396  89.0574 263.9037 0138331 211.6823 147.6017 14.69649632107635

Traccia CZ-6A DEB in tempo reale con AllMySat

Download on the App Store